Location: site
(53.0000°N, 23.0500°E)
Time: 17:32:21
(UTC+01:00)

SAOCOM 1-A - Pass Details

Date: 24 January 2020
Orbit: 621 x 623 km, 97.9° (Epoch: 25 February)

Event Time Altitude Azimuth Distance (km) Brightness Sun altitude
Rises 02:49:53 0° 106° (ESE) 2,904 ? -40.4°
Reaches altitude 10° 02:53:14 10° 78° (ENE) 2,002 ? -39.9°
Enters shadow 02:53:41 11° 72° (ENE) 1,932 ? -39.9°
